{"data":{"norad_id":66172,"epoch":"2026-05-25T01:53:41.076096Z","epoch_age_seconds":75184,"freshness":"FRESH","line1":"1 66172U 25240AC  26145.07894764  .00014175  00000+0  48967-3 0  9992","line2":"2 66172  53.1577  68.0031 0001061  98.4446 261.6675 15.30208764 33682","mean_motion":15.30208764,"eccentricity":0.0001061,"inclination_deg":53.1577,"raan_deg":68.0031,"arg_perigee_deg":98.4446,"mean_anomaly_deg":261.6675,"bstar":0.00048967,"rev_number":3368,"period_min":94.104806734723,"perigee_km":474.46176394175,"apogee_km":475.91603969812,"semimajor_km":6853.3259018199,"source":"CELESTRAK","updated_at":"2026-05-25T13:38:21.074470Z"}}